Location: Krakow
(50.0830°N, 19.9170°E)
Time: 16:14:01
(UTC+01:00)

A-11 Canister half - Visible Passes

Search period start: 02 December 2023 00:00
Search period end: 12 December 2023 00:00
Orbit: 1514 x 1685 km, 47.2° (Epoch: 01 December)

Date Brightness Start Highest point End Pass type
(mag) Time Alt. Az. Time Alt. Az. Time Alt. Az.
02 Dec 9.8 02:17:47 45° E 02:17:47 45° E 02:24:18 10° E visible
02 Dec 9.1 04:15:58 50° WSW 04:19:05 75° S 04:29:14 10° ESE visible
02 Dec 9.6 06:14:10 11° W 06:23:33 50° SSW 06:33:10 10° SE visible
03 Dec 10.2 01:56:07 35° E 01:56:07 35° E 02:01:17 10° E visible
03 Dec 9.0 03:54:19 63° WSW 03:56:06 76° S 04:06:15 10° ESE visible
03 Dec 9.5 05:52:31 16° W 06:00:35 52° SSW 06:10:17 10° SE visible
04 Dec 10.5 01:34:28 27° E 01:34:28 27° E 01:38:18 10° E visible
04 Dec 8.9 03:32:40 75° SSW 03:33:07 76° S 03:43:15 10° ESE visible
04 Dec 9.5 05:30:51 21° W 05:37:39 54° SSW 05:47:24 10° SE visible
05 Dec 10.8 01:12:49 20° E 01:12:49 20° E 01:15:17 10° E visible
05 Dec 9.1 03:11:01 72° SE 03:11:01 72° SE 03:20:15 10° E visible
05 Dec 9.4 05:09:13 28° W 05:14:42 55° SSW 05:24:30 10° SE visible
06 Dec 11.1 00:51:11 14° E 00:51:11 14° E 00:52:17 10° E visible
06 Dec 9.4 02:49:23 59° ESE 02:49:23 59° ESE 02:57:15 10° E visible
06 Dec 9.3 04:47:36 36° W 04:51:45 57° SSW 05:01:35 10° SE visible
06 Dec 10.3 06:47:37 10° W 06:55:18 26° SW 07:03:03 10° S visible
07 Dec 9.8 02:27:47 46° ESE 02:27:47 46° ESE 02:34:15 10° E visible
07 Dec 9.2 04:25:59 46° WSW 04:28:48 59° SSW 04:38:39 10° SE visible
07 Dec 10.2 06:24:32 10° W 06:32:25 27° SW 06:40:23 10° S visible
08 Dec 10.1 02:06:11 35° E 02:06:11 35° E 02:11:14 10° E visible
08 Dec 9.1 04:04:24 56° SW 04:05:50 61° SSW 04:15:44 10° SE visible
08 Dec 10.1 06:02:36 13° W 06:09:32 29° SW 06:17:41 10° S visible
09 Dec 10.5 01:44:38 26° E 01:44:38 26° E 01:48:15 10° E visible
09 Dec 9.1 03:42:51 62° SSW 03:42:53 62° SSW 03:52:48 10° SE visible
09 Dec 10.0 05:41:03 18° W 05:46:39 30° SW 05:54:58 10° SSE visible
10 Dec 10.9 01:23:07 19° E 01:23:07 19° E 01:25:14 10° E visible
10 Dec 9.3 03:21:19 59° SSE 03:21:19 59° SSE 03:29:51 10° ESE visible
10 Dec 9.9 05:19:32 24° W 05:23:45 32° SW 05:32:15 10° SSE visible
11 Dec 11.2 01:01:37 12° E 01:01:37 12° E 01:02:14 10° E visible
11 Dec 9.6 02:59:50 48° SE 02:59:50 48° SE 03:06:54 10° ESE visible
11 Dec 9.8 04:58:03 29° WSW 05:00:50 34° SW 05:09:29 10° SSE visible
